This demonstration page uses our WeatherBlox Daily Observations layout. Learn more.

Left ArrowRight Arrow

34.74481, -87.66753

Hourly Observations for May 3, 2021

Temp ( °F °C ) Dew Point ( °F °C ) Humidity (%) Winds ( mph kmh ) Pressure ( in mb ) Visibility ( mi km ) Precip ( " mm )
12:02 am 00:02 Cloudy 71 21.7 64 17.8 79 79 S 10 17 29.68 1005 10 16 0.00 0.00
12:13 am 00:13 Mostly Cloudy 71 21.7 64 17.8 79 79 S 14 22 29.68 1005 10 16 0.00 0.00
1:53 am 01:53 Cloudy 72 22.2 64 17.8 76 76 SSW 14 22 29.68 1005 10 16 0.00 0.00
2:03 am 02:03 Cloudy 72 22.2 64 17.8 76 76 S 13 20 29.67 1005 10 16 0.00 0.00
2:16 am 02:16 Mostly Cloudy 72 22.2 64 17.8 76 76 S 8 13 29.66 1005 10 16 0.00 0.00
2:53 am 02:53 Cloudy 72 22.2 64 17.8 76 76 S 13 20 29.65 1004 10 16 0.00 0.00
3:11 am 03:11 Cloudy 72 22.2 64 17.8 76 76 S 10 17 29.66 1005 10 16 0.00 0.00
3:19 am 03:19 Cloudy 72 22.2 64 17.8 76 76 SSW 13 20 29.67 1005 10 16 0.00 0.00
3:34 am 03:34 Cloudy with Light Rain 72 22.2 63 17.2 73 73 S 13 20 29.67 1005 10 16 0.00 0.00
3:42 am 03:42 Cloudy 72 22.2 63 17.2 73 73 S 13 20 29.67 1005 10 16 0.00 0.00
3:53 am 03:53 Cloudy 72 22.2 63 17.2 73 73 S 13 20 29.67 1005 10 16 0.00 0.00
4:53 am 04:53 Cloudy 72 22.2 63 17.2 73 73 S 13 20 29.67 1005 10 16 0.00 0.00
5:53 am 05:53 Cloudy 71 21.7 63 17.2 76 76 SSW 16 26 29.70 1006 10 16 0.00 0.00
6:53 am 06:53 Cloudy 72 22.2 64 17.8 76 76 SW 13 20 29.72 1007 10 16 0.00 0.00
7:53 am 07:53 Cloudy 73 22.8 65 18.3 76 76 SSW 10 17 29.74 1007 10 16 0.00 0.00
8:53 am 08:53 Cloudy 74 23.3 66 18.9 76 76 WSW 12 19 29.75 1007 10 16 0.00 0.00
9:53 am 09:53 Cloudy 77 25 67 19.4 71 71 SW 13 20 29.75 1007 10 16 0.00 0.00
10:53 am 10:53 Cloudy 78 25.6 67 19.4 69 69 WSW 9 15 29.76 1008 10 16 0.00 0.00
11:33 am 11:33 Mostly Cloudy 82 27.8 68 20 63 63 WSW 15 24 29.75 1008 10 16 0.00 0.00
11:53 am 11:53 Mostly Cloudy 82 27.8 67 19.4 60 60 WSW 17 28 29.75 1008 10 16 0.00 0.00
12:53 pm 12:53 Mostly Cloudy 84 28.9 67 19.4 57 57 WSW 14 22 29.74 1007 10 16 0.00 0.00
1:53 pm 13:53 Mostly Sunny 87 30.6 67 19.4 51 51 SW 16 26 29.72 1006 10 16 0.00 0.00
2:53 pm 14:53 Partly Cloudy 86 30 67 19.4 53 53 SSW 15 24 29.70 1006 10 16 0.00 0.00
3:53 pm 15:53 Partly Cloudy 86 30 67 19.4 53 53 WSW 16 26 29.70 1006 10 16 0.00 0.00
4:53 pm 16:53 Mostly Sunny 86 30 68 20 55 55 WSW 14 22 29.69 1006 10 16 0.00 0.00
5:53 pm 17:53 Sunny 85 29.4 68 20 57 57 WSW 10 17 29.70 1006 10 16 0.00 0.00
6:53 pm 18:53 Sunny 83 28.3 68 20 61 61 SW 8 13 29.71 1006 10 16 0.00 0.00
7:53 pm 19:53 Clear 80 26.7 68 20 67 67 S 5 7 29.72 1006 9 14 0.00 0.00
8:53 pm 20:53 Clear 77 25 68 20 74 74 SSE 6 9 29.73 1007 9 14 0.00 0.00
9:53 pm 21:53 Mostly Cloudy 77 25 69 20.6 77 77 SSE 7 11 29.76 1008 9 14 0.00 0.00
10:53 pm 22:53 Mostly Cloudy 77 25 69 20.6 77 77 SSE 8 13 29.77 1008 9 14 0.00 0.00
11:53 pm 23:53 Mostly Clear 77 25 70 21.1 79 79 SSE 7 11 29.78 1008 9 14 0.00 0.00

Powered by AerisWeather